KJ6MC Weather Reports


Display with metric or nautical units.
time (UTC)temp
F
wind
direction
speed
MPH
gust
MPH
rain 1hr
in
rain 24hr
in
rain mn
in
humidity
%
barometer
mb
20170623235008 101 271 3.0 10.0 0.00 0.00 0.00 28 1008.3
20170623234007 101 198 3.0 10.0 0.00 0.00 0.00 26 1008.2
20170623233008 103 27 0.0 3.0 0.00 0.00 0.00 27 1008.3
20170623232007 103 256 0.0 3.0 0.00 0.00 0.00 27 1008.3
20170623230007 102 242 2.0 4.0 0.00 0.00 0.00 29 1008.3
20170623225007 101 306 0.0 4.0 0.00 0.00 0.00 30 1008.3
20170623224007 102 11 0.0 4.0 0.00 0.00 0.00 27 1008.4
20170623222007 101 266 3.0 4.0 0.00 0.00 0.00 29 1008.5
20170623221006 101 0 0.0 3.0 0.00 0.00 0.00 29 1008.6
20170623215006 100 145 0.0 7.0 0.00 0.00 0.00 31 1008.7
20170623214006 100 25 3.0 4.0 0.00 0.00 0.00 30 1008.8
20170623213006 99 6 2.0 7.0 0.00 0.00 0.00 32 1008.8
20170623203005 97 321 0.0 6.0 0.00 0.00 0.00 35 1009.0
20170623202005 96 269 3.0 4.0 0.00 0.00 0.00 33 1009.1
20170623193004 93 165 0.0 7.0 0.00 0.00 0.00 36 1009.4
20170623192004 92 294 3.0 7.0 0.00 0.00 0.00 37 1009.4
20170623191004 91 226 6.0 7.0 0.00 0.00 0.00 39 1009.4
20170623183003 89 242 1.0 7.0 0.00 0.00 0.00 41 1009.4
20170623181003 87 248 3.0 7.0 0.00 0.00 0.00 42 1009.3
20170623180003 86 182 2.0 10.0 0.00 0.00 0.00 43 1009.4
20170623175003 85 178 1.0 10.0 0.00 0.00 0.00 46 1009.4
20170623173002 83 271 0.0 7.0 0.00 0.00 0.00 45 1009.4
20170623172002 83 152 4.0 7.0 0.00 0.00 0.00 46 1009.4
20170623171002 83 230 3.0 7.0 0.00 0.00 0.00 46 1009.3
20170623170002 83 254 2.0 7.0 0.00 0.00 0.00 48 1009.3
20170623164002 82 320 2.0 5.0 0.00 0.00 0.00 48 1009.4
20170623163001 81 250 3.0 7.0 0.00 0.00 0.00 49 1009.4
20170623162001 80 258 4.0 6.0 0.00 0.00 0.00 49 1009.4
20170623160001 79 250 3.0 7.0 0.00 0.00 0.00 50 1009.3
20170623151001 76 246 4.0 5.0 0.00 0.00 0.00 56 1008.9
20170623150000 76 265 2.0 5.0 0.00 0.00 0.00 55 1008.9
20170623145000 75 152 1.0 3.0 0.00 0.00 0.00 57 1008.8
20170623135959 72 167 1.0 4.0 0.00 0.00 0.00 60 1008.2
20170623134959 71 231 1.0 4.0 0.00 0.00 0.00 61 1008.2
20170623133959 70 222 0.0 3.0 0.00 0.00 0.00 62 1008.1
20170623131959 69 224 0.0 3.0 0.00 0.00 0.00 63 1008.0
20170623125959 69 168 0.0 4.0 0.00 0.00 0.00 62 1007.7
20170623124958 70 157 0.0 4.0 0.00 0.00 0.00 62 1007.5
20170623122958 70 172 0.0 4.0 0.00 0.00 0.00 61 1007.3
20170623121958 70 158 1.0 4.0 0.00 0.00 0.00 61 1007.2
20170623113957 71 225 1.0 4.0 0.00 0.00 0.00 59 1006.7
20170623112957 71 183 0.0 3.0 0.00 0.00 0.00 58 1006.6
20170623111957 71 159 0.0 3.0 0.00 0.00 0.00 58 1006.5
20170623110957 72 206 2.0 3.0 0.00 0.00 0.00 59 1006.5
20170623101956 72 170 0.0 2.0 0.00 0.00 0.00 57 1006.3
20170623094956 73 246 0.0 3.0 0.00 0.00 0.00 57 1006.3
20170623093956 73 196 0.0 3.0 0.00 0.00 0.00 56 1006.2
20170623091955 74 179 0.0 2.0 0.00 0.00 0.00 55 1006.2
20170623090955 74 165 1.0 2.0 0.00 0.00 0.00 54 1006.3
20170623085955 74 237 2.0 3.0 0.00 0.00 0.00 54 1006.3
20170623084955 74 176 0.0 3.0 0.00 0.00 0.00 53 1006.3
20170623083955 74 176 0.0 3.0 0.00 0.00 0.00 53 1006.4
20170623080955 75 231 0.0 3.0 0.00 0.00 0.00 53 1006.3
20170623075954 75 246 0.0 5.0 0.00 0.00 0.00 52 1006.2
20170623074954 75 226 2.0 4.0 0.00 0.00 0.00 52 1006.2
20170623073954 76 248 2.0 3.0 0.00 0.00 0.00 51 1006.1
20170623072954 76 230 0.0 4.0 0.00 0.00 0.00 51 1006.1
20170623070954 76 203 0.0 3.0 0.00 0.00 0.00 52 1006.0
20170623065953 76 252 0.0 4.0 0.00 0.00 0.00 51 1005.9
20170623063953 78 255 0.0 4.0 0.00 0.00 0.00 50 1005.9
20170623062953 78 149 1.0 6.0 0.00 0.00 0.00 50 1005.8
20170623055953 79 291 1.0 7.0 0.00 0.00 0.00 49 1005.5
20170623054953 80 258 3.0 7.0 0.00 0.00 0.00 48 1005.3
20170623053952 80 246 0.0 7.0 0.00 0.00 0.00 48 1005.2
20170623052952 81 288 0.0 6.0 0.00 0.00 0.00 48 1005.1
20170623051952 81 258 1.0 6.0 0.00 0.00 0.00 48 1005.0
20170623040951 85 265 1.0 6.0 0.00 0.00 0.00 44 1004.3
20170623034951 87 244 1.0 7.0 0.00 0.00 0.00 42 1004.1
20170623033951 88 296 0.0 7.0 0.00 0.00 0.00 41 1004.1
20170623032951 89 257 0.0 10.0 0.00 0.00 0.00 40 1004.0
20170623025950 93 250 3.0 10.0 0.00 0.00 0.00 36 1003.7
20170623024950 94 254 3.0 10.0 0.00 0.00 0.00 35 1003.7
20170623023950 96 234 3.0 10.0 0.00 0.00 0.00 33 1003.6
20170623022950 97 261 3.0 8.0 0.00 0.00 0.00 32 1003.5
20170623021950 98 286 3.0 8.0 0.00 0.00 0.00 30 1003.5
20170623015949 102 213 3.0 8.0 0.00 0.00 0.00 25 1003.2
20170623014949 103 254 1.0 4.0 0.00 0.00 0.00 23 1003.0
20170623012949 104 310 0.0 6.0 0.00 0.00 0.00 22 1002.8
20170623010948 106 308 0.0 6.0 0.00 0.00 0.00 21 1002.8
20170623005948 107 178 0.0 5.0 0.00 0.00 0.00 21 1002.8
20170623004948 108 337 0.0 5.0 0.00 0.00 0.00 21 1002.8
20170623003948 107 323 0.0 5.0 0.00 0.00 0.00 19 1002.8
20170623000948 108 238 1.0 5.0 0.00 0.00 0.00 18 1003.0
20170622235948 110 319 0.0 3.0 0.00 0.00 0.00 18 1003.0